User: anonymous   Login
Location: Oberwangen
(47.4286°N, 8.9679°E)
Time: 22:11:01
(UTC+00:00)
Language:

Cosmos 1441 Rocket - Orbit

View from above orbital plane
View from above orbital plane
View from above satellite
View from above satellite

Ground track
Ground track

The orbit data is extracted from the following two-line orbital elements,

1 13819U 83010B   21265.68225558  .00000569  00000-0  27739-4 0  9993
2 13819  81.1149 138.6850 0031629 175.4391 184.7132 15.16275470109431
Epoch (UTC): 22 September 2021 16:22:26
Eccentricity: 0.0031629
inclination: 81.1149°
perigee height: 495 km
apogee height: 539 km
right ascension of ascending node: 138.6850°
argument of perigee: 175.4391°
revolutions per day: 15.16275470
mean anomaly at epoch: 184.7132°
orbit number at epoch: 10943

The dashed part of the orbit path shows where the satellite is in the earth's shadow,  

DLR